This demonstration page uses our WeatherBlox Daily Observations layout. Learn more.

Left ArrowRight Arrow

39.51506, -84.39828

Hourly Observations for January 27, 2021

Temp ( °F °C ) Dew Point ( °F °C ) Humidity (%) Winds ( mph kmh ) Pressure ( in mb ) Visibility ( mi km ) Precip ( " mm )
12:15 am 00:15 Cloudy 33 0.6 31 -0.8 90 90 NW 5 7 30.14 1021 10 16.0934 N/A
12:35 am 00:35 Cloudy 33 0.6 30 -0.9 90 90 NW 7 11 30.14 1021 10 16.0934 N/A
12:55 am 00:55 Cloudy 33 0.5 30 -1.1 89 89 NW 7 11 30.14 1021 10 16.0934 N/A
1:15 am 01:15 Cloudy 33 0.6 30 -1.3 87 87 NNW 9 15 30.14 1021 10 16.0934 N/A
1:35 am 01:35 Cloudy 33 0.6 30 -1.3 87 87 NW 8 13 30.15 1021 10 16.0934 N/A
1:55 am 01:55 Cloudy 33 0.6 29 -1.4 87 87 NNW 6 9 30.16 1021 10 16.0934 N/A
2:15 am 02:15 Cloudy 33 0.6 29 -1.5 86 86 N 6 9 30.17 1022 10 16.0934 N/A
2:35 am 02:35 Cloudy 33 0.4 29 -1.5 87 87 N 5 7 30.18 1022 10 16.0934 N/A
2:55 am 02:55 Cloudy 33 0.5 29 -1.6 86 86 N 5 7 30.19 1022 10 16.0934 N/A
3:15 am 03:15 Cloudy 33 0.5 29 -1.4 87 87 N 5 7 30.2 1023 10 16.0934 N/A
3:35 am 03:35 Cloudy 33 0.3 30 -1.3 89 89 NNE 7 11 30.21 1023 10 16.0934 N/A
3:55 am 03:55 Cloudy 32 0.2 29 -1.4 89 89 N 8 13 30.22 1024 10 16.0934 N/A
4:15 am 04:15 Cloudy 32 0.1 29 -1.8 87 87 N 7 11 30.24 1024 10 16.0934 N/A
4:35 am 04:35 Cloudy 32 0.1 29 -1.9 87 87 N 8 13 30.24 1024 10 16.0934 N/A
4:55 am 04:55 Cloudy 32 undefined 29 -1.9 87 87 N 8 13 30.25 1024 10 16.0934 N/A
5:15 am 05:15 Cloudy 32 -0.1 28 -2.1 87 87 N 9 15 30.25 1024 10 16.0934 N/A
5:35 am 05:35 Cloudy 31 -0.3 26 -3.1 82 82 N 9 15 30.25 1024 10 16.0934 N/A
5:55 am 05:55 Cloudy 31 -0.5 26 -3.1 83 83 NNE 10 17 30.24 1024 10 16.0934 N/A
6:15 am 06:15 Cloudy 31 -0.6 27 -2.9 85 85 NNE 9 15 30.23 1024 10 16.0934 N/A
6:35 am 06:35 Cloudy 31 -0.7 26 -3.1 84 84 NNE 10 17 30.21 1023 10 16.0934 N/A
6:55 am 06:55 Cloudy 31 -0.7 27 -3 85 85 NNE 9 15 30.21 1023 10 16.0934 N/A
7:15 am 07:15 Cloudy 31 -0.7 27 -2.8 86 86 N 7 11 30.23 1024 10 16.0934 N/A
7:35 am 07:35 Cloudy 31 -0.7 27 -2.8 86 86 N 7 11 30.25 1024 10 16.0934 N/A
7:55 am 07:55 Cloudy 31 -0.7 27 -2.7 87 87 N 10 17 30.27 1025 10 16.0934 N/A
8:15 am 08:15 Cloudy 31 -0.8 27 -2.8 86 86 N 9 15 30.27 1025 10 16.0934 N/A
8:35 am 08:35 Cloudy 30 -0.9 27 -2.9 86 86 N 12 19 30.27 1025 10 16.0934 N/A
8:55 am 08:55 Cloudy 30 -1 27 -2.9 87 87 NNE 9 15 30.27 1025 10 16.0934 N/A
9:15 am 09:15 Cloudy 30 -1 27 -2.8 88 88 NNE 7 11 30.27 1025 10 16.0934 N/A
9:35 am 09:35 Cloudy 31 -0.8 27 -2.8 86 86 NNE 8 13 30.28 1025 10 16.0934 N/A
9:55 am 09:55 Cloudy 31 -0.7 27 -2.8 86 86 NNE 9 15 30.27 1025 10 16.0934 N/A
10:15 am 10:15 Cloudy 31 -0.7 27 -2.9 85 85 NNE 10 17 30.27 1025 10 16.0934 N/A
10:35 am 10:35 Cloudy 31 -0.6 27 -2.7 86 86 NNE 8 13 30.27 1025 10 16.0934 N/A
10:55 am 10:55 Cloudy 31 -0.5 27 -3 83 83 NNE 8 13 30.27 1025 10 16.0934 N/A
11:15 am 11:15 Cloudy 31 -0.3 26 -3.5 79 79 NE 7 11 30.29 1026 10 16.0934 N/A
11:35 am 11:35 Cloudy 32 -0.1 25 -3.8 76 76 ENE 10 17 30.29 1026 10 16.0934 N/A
11:55 am 11:55 Cloudy 32 0.2 24 -4.6 70 70 ENE 9 15 30.27 1025 10 16.0934 N/A
12:15 pm 12:15 Cloudy 32 undefined 25 -3.8 76 76 N 7 11 30.32 1027 10 16.0934 N/A
12:35 pm 12:35 Cloudy 32 -0.1 25 -3.8 76 76 N 7 11 30.29 1026 10 16.0934 N/A
12:55 pm 12:55 Cloudy 32 -0.1 25 -3.7 77 77 N 8 13 30.28 1025 10 16.0934 N/A
1:15 pm 13:15 Cloudy 32 undefined 25 -4 75 75 NE 7 11 30.26 1025 10 16.0934 N/A
1:35 pm 13:35 Cloudy 32 0.1 24 -4.4 72 72 NNE 9 15 30.25 1024 10 16.0934 N/A
1:55 pm 13:55 Cloudy 33 0.3 24 -4.6 70 70 NE 9 15 30.24 1024 10 16.0934 N/A
2:15 pm 14:15 Cloudy 33 0.3 24 -4.6 70 70 NE 12 19 30.23 1024 10 16.0934 N/A
2:35 pm 14:35 Cloudy 32 undefined 25 -3.9 75 75 NNE 7 11 30.24 1024 10 16.0934 N/A
2:55 pm 14:55 Cloudy 32 undefined 25 -3.8 76 76 NNE 8 13 30.24 1024 10 16.0934 N/A
3:15 pm 15:15 Cloudy 32 -0.1 25 -3.8 76 76 NNE 12 19 30.23 1024 10 16.0934 N/A
3:35 pm 15:35 Cloudy 32 undefined 25 -4.1 74 74 NNE 10 17 30.23 1024 10 16.0934 N/A
3:55 pm 15:55 Cloudy 32 0.1 24 -4.2 73 73 N 7 11 30.24 1024 10 16.0934 N/A
4:15 pm 16:15 Cloudy 32 -0.2 26 -3.5 79 79 N 9 15 30.26 1025 10 16.0934 N/A
4:35 pm 16:35 Cloudy 31 -0.4 26 -3.5 80 80 N 7 11 30.26 1025 10 16.0934 N/A
4:55 pm 16:55 Cloudy 31 -0.5 25 -3.7 79 79 N 10 17 30.27 1025 10 16.0934 N/A
5:15 pm 17:15 Cloudy 31 -0.6 26 -3.6 80 80 N 8 13 30.27 1025 10 16.0934 N/A
5:35 pm 17:35 Cloudy 31 -0.7 25 -3.7 80 80 N 13 20 30.27 1025 10 16.0934 N/A
5:55 pm 17:55 Cloudy with Light Snow 30 -1 25 -4 80 80 N 15 24 30.27 1025 10 16.0934 N/A
6:15 pm 18:15 Cloudy 30 -1.2 24 -4.2 80 80 N 15 24 30.29 1026 10 16.0934 N/A
6:35 pm 18:35 Cloudy 30 -1.3 24 -4.3 80 80 N 12 19 30.29 1026 10 16.0934 N/A
6:55 pm 18:55 Cloudy 29 -1.6 24 -4.3 82 82 N 15 24 30.31 1026 10 16.0934 N/A
7:15 pm 19:15 Cloudy with Light Snow 29 -1.8 24 -4.3 83 83 N 14 22 30.32 1027 10 16.0934 N/A
7:35 pm 19:35 Cloudy with Light Snow 28 -2.2 24 -4.2 86 86 N 13 20 30.32 1027 3 4.82802 N/A
7:55 pm 19:55 Cloudy with Light Snow 28 -2.3 24 -4.4 86 86 N 15 24 30.33 1027 4 6.43736 N/A
8:15 pm 20:15 Cloudy with Light Snow 28 -2.4 24 -4.7 84 84 N 13 20 30.34 1027 7 11.26538 N/A
8:35 pm 20:35 Cloudy with Light Snow 28 -2.4 23 -5 83 83 N 14 22 30.35 1028 10 16.0934 N/A
8:55 pm 20:55 Cloudy with Light Snow 28 -2.4 22 -5.4 80 80 N 14 22 30.36 1028 10 16.0934 N/A
9:15 pm 21:15 Cloudy 27 -2.6 21 -5.9 78 78 N 12 19 30.36 1028 10 16.0934 N/A
9:35 pm 21:35 Cloudy 27 -2.6 21 -6 78 78 N 14 22 30.37 1029 10 16.0934 N/A
9:55 pm 21:55 Cloudy with Light Snow 27 -2.8 21 -6.3 77 77 NNW 16 26 30.38 1029 10 16.0934 N/A
10:15 pm 22:15 Cloudy 27 -3 19 -7.4 72 72 N 14 22 30.39 1029 10 16.0934 N/A
10:35 pm 22:35 Cloudy 27 -3 18 -8 69 69 N 14 22 30.4 1030 10 16.0934 N/A
10:55 pm 22:55 Cloudy 26 -3.1 18 -7.9 70 70 N 14 22 30.4 1030 10 16.0934 N/A
11:15 pm 23:15 Cloudy 26 -3.2 18 -8 70 70 N 13 20 30.41 1030 10 16.0934 N/A
11:35 pm 23:35 Cloudy 26 -3.3 17 -8.1 70 70 N 9 15 30.42 1030 10 16.0934 N/A
11:55 pm 23:55 Cloudy 26 -3.2 17 -8.1 69 69 N 9 15 30.42 1030 10 16.0934 N/A

Powered by AerisWeather